Pasco, WA

2:47 AM PDT on July 23, 2017 (GMT -0700)
Tri-Cities

Weather History for KPSC - June, 2014

Change the Weather History Date:

Thursday, June 5, 2014

  Actual Average Record
Temperature  
Mean Temperature 66 °F 66 °F  
Max Temperature 81 °F 80 °F 99 °F (2016)
Min Temperature 51 °F 51 °F 41 °F (1943)
Degree Days  
Heating Degree Days 0 2  
Month to date heating degree days 0 10  
Since 1 June heating degree days 0 10  
Since 1 July heating degree days 5207 5000  
Cooling Degree Days 1 2  
Month to date cooling degree days 26 10  
Year to date cooling degree days 60 43  
Since 1 June cooling degree days 26 10  
Growing Degree Days 18 (Base 50)    
Moisture  
Dew Point 37 °F    
Average Humidity 52    
Maximum Humidity 89    
Minimum Humidity 15    
Precipitation  
Precipitation 0.00 in 0.03 in 0.43 in (2007)
Month to date precipitation 0.00 0.16  
Year to date precipitation 2.38 4.41  
Snow  
Snow 0.00 in - - ()
Snow Depth 0.00 in    
Sea Level Pressure  
Sea Level Pressure 29.99 in    
Wind  
Wind Speed 7 mph (NNW)    
Max Wind Speed 14 mph    
Max Gust Speed 19 mph    
Visibility 10 miles    
Events      
T = Trace of Precipitation, MM = Missing Value Source: NWS Daily Summary

Daily Weather History Graph

Daily Weather History Graph

Search for Another Location

Airport or City:

Trip Planner

Search our weather history database for the weather conditions in past years. The results will help you decide how hot, cold, wet, or windy it might be!

Date:

Astronomy

Jun. 05, 2014 Rise Set
Actual Time 5:06 AM PDT 8:44 PM PDT
Civil Twilight 4:28 AM PDT 9:22 PM PDT
Nautical Twilight 3:37 AM PDT 10:13 PM PDT
Astronomical Twilight 2:28 AM PDT 11:22 PM PDT
Moon 12:46 PM PDT (6/5) 12:56 AM PDT (6/5)
Length of Visible Light 16h 54m
Length of Day
15h 38m
Waxing Crescent, 49% of the Moon is Illuminated
Jun 5
Waxing Crescent
Jun 5
First Quarter
Jun 12
Full
Jun 19
Last Quarter
Jun 27
New

Hourly Weather History & Observations

Time (PDT) Temp. Dew Point Humidity Pressure Visibility Wind Dir Wind Speed Gust Speed Precip Events Conditions
12:53 AM 63.0 °F 44.1 °F 50% 29.93 in 10.0 mi NW 11.5 mph - N/A   Clear
1:53 AM 60.1 °F 44.1 °F 55% 29.95 in 10.0 mi NW 6.9 mph - N/A   Clear
2:53 AM 59.0 °F 44.1 °F 58% 29.97 in 10.0 mi Calm Calm - N/A   Clear
3:53 AM 60.1 °F 42.1 °F 51% 29.99 in 10.0 mi Variable 3.5 mph - N/A   Clear
4:53 AM 57.9 °F 41.0 °F 53% 30.00 in 10.0 mi WNW 9.2 mph - N/A   Clear
5:53 AM 57.9 °F 39.9 °F 51% 30.03 in 10.0 mi WNW 9.2 mph - N/A   Clear
6:53 AM 62.1 °F 41.0 °F 46% 30.05 in 10.0 mi NW 8.1 mph - N/A   Clear
7:53 AM 66.0 °F 39.9 °F 38% 30.06 in 10.0 mi NW 10.4 mph - N/A   Clear
8:53 AM 70.0 °F 37.9 °F 31% 30.06 in 10.0 mi North 9.2 mph - N/A   Clear
9:53 AM 71.1 °F 37.0 °F 29% 30.06 in 10.0 mi NW 6.9 mph - N/A   Clear
10:53 AM 72.0 °F 30.9 °F 22% 30.06 in 10.0 mi WNW 8.1 mph - N/A   Clear
11:53 AM 75.9 °F 32.0 °F 20% 30.04 in 10.0 mi NNW 10.4 mph - N/A   Clear
12:53 PM 78.1 °F 26.1 °F 15% 30.03 in 10.0 mi NNE 6.9 mph - N/A   Clear
1:53 PM 75.9 °F 28.0 °F 17% 30.02 in 10.0 mi Calm Calm - N/A   Clear
2:53 PM 79.0 °F 30.9 °F 17% 30.01 in 10.0 mi North 8.1 mph - N/A   Clear
3:53 PM 79.0 °F 28.9 °F 16% 29.98 in 10.0 mi West 6.9 mph - N/A   Clear
4:53 PM 81.0 °F 28.9 °F 15% 29.96 in 10.0 mi Variable 5.8 mph - N/A   Clear
5:53 PM 80.1 °F 35.1 °F 20% 29.94 in 10.0 mi North 10.4 mph - N/A   Clear
6:53 PM 80.1 °F 30.9 °F 17% 29.93 in 10.0 mi NNE 8.1 mph - N/A   Clear
7:53 PM 78.1 °F 27.0 °F 15% 29.93 in 10.0 mi ESE 3.5 mph - N/A   Clear
8:53 PM 66.9 °F 37.0 °F 33% 29.93 in 10.0 mi SE 3.5 mph - N/A   Clear
9:53 PM 62.1 °F 46.0 °F 56% 29.94 in 10.0 mi Calm Calm - N/A   Clear
10:53 PM 55.9 °F 48.0 °F 75% 29.94 in 10.0 mi NW 4.6 mph - N/A   Clear
11:53 PM 52.0 °F 48.9 °F 89% 29.94 in 10.0 mi NNE 4.6 mph - N/A   Clear